Content
SEND FEEDBACK

Daily
Averages
Monthly
Summary
French Polynesia

PAPEETE, FRENCH POLYNESIA


Home > Oceania > French Polynesia
Elevation: 2 meters     Latitude: 17 33S     Longitude: 149 36W

WEATHER
 
SELECT A DAY
Number of Records: 208,679;   Date Range: 6/30/96 - 8/10/14
 
SHARE

PRINT THIS DATA

[ ← Previous Day ]
WEATHER ALMANAC - 17 JANUARY, 2013
[ Next Day → ]
[ °F ]   °C
Weather ElementAverageHighLow
Temperature26.7 °C29 °C (11:00 am)23 °C (11:00 pm)
Dewpoint22.1 °C24 °C (8:30 am)19 °C (11:30 pm)
Humidity75.4 %94 % (9:30 pm)61 % (5:00 am)
Barometer1008.8 hPa1011.5 hPa (11:00 pm)1007.1 hPa (2:00 am)
Wind Speed21.1 km/h50.1 km/h (9:30 pm)
Wind Gust59.2 km/h (6:00 am)
Weather ElementAverage
Visibility8.9 km
Wind DirectionENE (65.2 °)

Weather ElementTotal
Precipitation---
Cooling Degree Days7.7 (Base 18.3)
Growing Degree Days16 (Base 10)
Averaged from 54 records on 17 January, 2013
WEATHER CONDITIONS BREAKOUT
WIND DIRECTION BREAKOUT
WEATHER BY HOUR - 17 JANUARY, 2013
[ °F ]   °C
Local TimeTemperatureDewpointHumidityBarometerVisibilityWind DirectionWind SpeedGust SpeedPrecipitationEventsConditions
12:30 AM28 °C21 °C66 %1008.1 hPa10 kmENE (60°)14.8 km/hMostly Cloudy
1:00 AM28 °C21 °C66 %1008.1 hPa10 kmENE (60°)16.7 km/hMostly Cloudy
1:30 AM28 °C21 °C66 %1008.1 hPa10 kmENE (60°)14.8 km/hMostly Cloudy
2:00 AM27.8 °C22.2 °C66 %1008.1 hPa19.3 kmENE (70°)13 km/hOvercast
2:00 AM28 °C23 °C74 %1007.1 hPa10 kmENE (70°)13 km/hMostly Cloudy
2:30 AM27 °C21 °C70 %1007.1 hPa10 kmEast (80°)13 km/hMostly Cloudy
3:00 AM27 °C23 °C79 %1007.1 hPa10 kmENE (60°)18.5 km/hMostly Cloudy
3:30 AM28 °C22 °C70 %1007.1 hPaENE (60°)24.1 km/h
4:00 AM28 °C22 °C70 %1007.1 hPaENE (60°)20.4 km/h
4:30 AM28 °C22 °C70 %1008.1 hPaENE (60°)16.7 km/h
5:00 AM27.8 °C21.7 °C61 %1008.1 hPaENE (60°)39.6 km/hClear
5:00 AM28 °C22 °C70 %1008.1 hPaENE (60°)20.4 km/h
5:30 AM26 °C22 °C78 %1008.1 hPaENE (70°)25.9 km/hRainLight Rain
6:00 AM24 °C21 °C83 %1009.1 hPa5 kmEast (80°)31.5 km/h59.2 km/hRainLight Rain
6:30 AM25 °C22 °C83 %1009.1 hPa10 kmENE (70°)13 km/hRainLight Rain
7:00 AM26 °C22 °C78 %1009.1 hPa10 kmENE (70°)13 km/hRainLight Rain
7:30 AM25 °C22 °C83 %1009.1 hPa10 kmENE (70°)20.4 km/hRainLight Rain
8:00 AM26.7 °C22.2 °C72 %1009.8 hPa4.8 kmENE (60°)18.5 km/hRainLight Rain
8:00 AM26 °C23 °C83 %1009.1 hPa5 kmENE (60°)18.5 km/hRainLight Rain
8:30 AM26 °C24 °C89 %1009.1 hPa10 kmENE (60°)14.8 km/hMostly Cloudy
9:00 AM28 °C22 °C70 %1010.2 hPa10 kmENE (70°)18.5 km/hMostly Cloudy
9:30 AM27 °C21 °C70 %1010.2 hPa10 kmENE (60°)16.7 km/hMostly Cloudy
10:00 AM27 °C23 °C79 %1009.1 hPa10 kmENE (70°)20.4 km/hRainLight Rain
10:30 AM28 °C23 °C74 %1009.1 hPa10 kmENE (70°)24.1 km/hRainLight Rain
11:00 AM29 °C22 °C66 %1009.1 hPa10 kmENE (70°)25.9 km/hMostly Cloudy
11:30 AM27 °C23 °C79 %1009.1 hPa5 kmENE (70°)27.8 km/h48.1 km/hRainLight Rain
12:00 PM27 °C21 °C70 %1008.1 hPa10 kmENE (70°)24.1 km/hMostly Cloudy
12:30 PM27 °C21 °C70 %1008.1 hPa10 kmENE (70°)18.5 km/hRainLight Rain
1:00 PM27 °C22 °C74 %1008.1 hPa10 kmEast (80°)22.2 km/hRainLight Rain
1:30 PM27 °C22 °C74 %1007.1 hPa10 kmENE (70°)14.8 km/hRainLight Rain
2:00 PM28.3 °C22.2 °C62 %1007.5 hPa9.7 kmENE (60°)32.3 km/hRainLight Rain
2:00 PM28 °C22 °C70 %1007.1 hPa10 kmENE (60°)16.7 km/hRainLight Rain
2:30 PM28 °C23 °C74 %1007.1 hPa10 kmENE (60°)20.4 km/hMostly Cloudy
3:00 PM28 °C23 °C74 %1007.1 hPa10 kmENE (70°)20.4 km/hMostly Cloudy
3:30 PM28 °C23 °C74 %1007.1 hPa10 kmENE (70°)20.4 km/hRainLight Rain
4:00 PM28 °C22 °C70 %1007.1 hPa10 kmENE (70°)13 km/hRainLight Rain
4:30 PM28 °C22 °C70 %1007.1 hPa10 kmEast (80°)13 km/hMostly Cloudy
5:00 PM26.7 °C23.3 °C76 %1008.8 hPa3.2 kmENE (70°)13 km/hRainHeavy Rain
5:00 PM27 °C23 °C79 %1008.1 hPa3.1 kmENE (70°)13 km/hRainHeavy Rain
5:30 PM26 °C23 °C83 %1008.1 hPa3.1 kmENE (70°)18.5 km/hRainLight Rain
6:00 PM26 °C22 °C78 %1009.1 hPa3.1 kmENE (70°)16.7 km/hRainLight Rain
6:30 PM26 °C22 °C78 %1009.1 hPa10 kmENE (70°)18.5 km/hRainLight Rain
7:00 PM26 °C22 °C78 %1009.1 hPa10 kmENE (70°)16.7 km/hRainLight Rain
7:30 PM26 °C22 °C78 %1010.2 hPa10 kmENE (70°)14.8 km/hRainLight Rain
8:00 PM25.6 °C22.2 °C76 %1010.5 hPa11.3 kmENE (70°)18.5 km/hRainLight Rain
8:00 PM26 °C22 °C78 %1010.2 hPa10 kmENE (70°)18.5 km/hRainLight Rain
8:30 PM26 °C22 °C78 %1010.2 hPa10 kmENE (70°)18.5 km/hRainLight Rain
9:00 PM26 °C22 °C78 %1010.2 hPa9 kmENE (70°)20.4 km/hRainLight Rain
9:30 PM24 °C23 °C94 %1011.2 hPa1.9 kmNorth (10°)50.1 km/hRainRain
10:00 PM25 °C23 °C89 %1011.2 hPa4 kmNNE (20°)48.1 km/hRainLight Rain
10:30 PM24 °C22 °C89 %1011.2 hPa6 kmNE (40°)37 km/hRainLight Rain
11:00 PM23.3 °C21.1 °C84 %1011.5 hPa9.7 kmENE (70°)31.5 km/hRainLight Rain
11:00 PM23 °C21 °C88 %1011.2 hPa10 kmENE (70°)31.5 km/hRainLight Rain
11:30 PM24 °C19 °C73 %1010.2 hPa10 kmENE (70°)24.1 km/hMostly Cloudy
Hourly data recorded from NTAA, located 0 kilometers away from Papeete, French Polynesia







STORIES FROM OUR PARTNERS